Weather History for KJNX - November, 2013

Change the Weather History Date:

Sunday, November 3, 2013

  Actual Average Record
Temperature  
Mean Temperature 50 °F -  
Max Temperature 62 °F 72 °F 86 °F (1974)
Min Temperature 37 °F 44 °F 27 °F (1963)
Degree Days  
Heating Degree Days 16    
Moisture  
Dew Point 39 °F    
Average Humidity 70    
Maximum Humidity 100    
Minimum Humidity 34    
Precipitation  
Precipitation 0.00 in - - ()
Sea Level Pressure  
Sea Level Pressure 30.15 in    
Wind  
Wind Speed 3 mph (North)    
Max Wind Speed 15 mph    
Max Gust Speed 20 mph    
Visibility 10 miles    
Events      
Averages and records for this station are not official NWS values.
T = Trace of Precipitation, MM = Missing Value Source: NWS Daily Summary

Daily Weather History Graph

Daily Weather History Graph

Search for Another Location

Airport or City:

Trip Planner

Search our weather history database for the weather conditions in past years. The results will help you decide how hot, cold, wet, or windy it might be!

Date:

Astronomy

Nov. 03, 2013 Rise Set
Actual Time 6:37 AM EST 5:16 PM EST
Civil Twilight 6:11 AM EST 5:42 PM EST
Nautical Twilight 5:40 AM EST 6:12 PM EST
Astronomical Twilight 5:10 AM EST 6:42 PM EST
Moon 6:38 AM EST (11/3) 5:30 PM EST (11/3)
Length of Visible Light 11h 31m
Length of Day
10h 38m
New Moon, 0% of the Moon is Illuminated
Nov 3
New Moon
Nov 10
First Quarter
Nov 17
Full
Nov 25
Last Quarter
Dec 2
New

Hourly Weather History & Observations

Time (EST) Temp. Dew Point Humidity Pressure Visibility Wind Dir Wind Speed Gust Speed Precip Events Conditions
12:15 AM 50.0 °F 44.6 °F 82% 29.93 in 10.0 mi Calm Calm - N/A   Clear
12:35 AM 50.0 °F 44.6 °F 82% 29.94 in 10.0 mi Calm Calm - N/A   Clear
12:55 AM 53.6 °F 41.0 °F 62% 29.94 in 10.0 mi North 3.5 mph - N/A   Clear
1:15 AM 53.6 °F 37.4 °F 54% 29.95 in 10.0 mi North 3.5 mph - N/A   Clear
1:35 AM 53.6 °F 37.4 °F 54% 29.95 in 10.0 mi North 4.6 mph - N/A   Clear
1:55 AM 51.8 °F 37.4 °F 58% 29.96 in 10.0 mi North 3.5 mph - N/A   Clear
1:15 AM 51.8 °F 37.4 °F 58% 29.96 in 10.0 mi NNW 3.5 mph - N/A   Clear
1:35 AM 51.8 °F 37.4 °F 58% 29.97 in 10.0 mi NNW 3.5 mph - N/A   Clear
1:55 AM 48.2 °F 37.4 °F 66% 29.98 in 10.0 mi Calm Calm - N/A   Clear
2:15 AM 44.6 °F 41.0 °F 87% 29.98 in 10.0 mi Calm Calm - N/A   Clear
2:35 AM 46.4 °F 39.2 °F 76% 29.98 in 10.0 mi Calm Calm - N/A   Clear
2:55 AM 46.4 °F 37.4 °F 71% 29.99 in 10.0 mi Calm Calm - N/A   Clear
3:15 AM 42.8 °F 41.0 °F 93% 29.99 in 10.0 mi Calm Calm - N/A   Clear
3:35 AM 42.8 °F 41.0 °F 93% 30.00 in 10.0 mi Calm Calm - N/A   Clear
3:55 AM 41.0 °F 41.0 °F 100% 30.01 in 10.0 mi Calm Calm - N/A   Clear
4:15 AM 41.0 °F 41.0 °F 100% 30.02 in 10.0 mi Calm Calm - N/A   Clear
4:35 AM 41.0 °F 41.0 °F 100% 30.02 in 10.0 mi Calm Calm - N/A   Clear
4:55 AM 41.0 °F 41.0 °F 100% 30.03 in 10.0 mi Calm Calm - N/A   Clear
5:15 AM 41.0 °F 41.0 °F 100% 30.04 in 10.0 mi Calm Calm - N/A   Clear
5:35 AM 41.0 °F 39.2 °F 93% 30.05 in 10.0 mi Calm Calm - N/A   Clear
5:55 AM 39.2 °F 39.2 °F 100% 30.06 in 10.0 mi Calm Calm - N/A   Clear
6:15 AM 39.2 °F 39.2 °F 100% 30.07 in 10.0 mi Calm Calm - N/A   Clear
6:35 AM 39.2 °F 39.2 °F 100% 30.08 in 10.0 mi Calm Calm - N/A   Clear
6:55 AM 37.4 °F 37.4 °F 100% 30.09 in 10.0 mi Calm Calm - N/A   Clear
7:15 AM 39.2 °F 39.2 °F 100% 30.11 in 7.0 mi Calm Calm - N/A   Clear
7:35 AM 41.0 °F 41.0 °F 100% 30.12 in 10.0 mi Calm Calm - N/A   Clear
7:55 AM 44.6 °F 42.8 °F 93% 30.13 in 10.0 mi Calm Calm - N/A   Clear
8:15 AM 50.0 °F 41.0 °F 71% 30.14 in 10.0 mi Calm Calm - N/A   Clear
8:35 AM 51.8 °F 39.2 °F 62% 30.15 in 10.0 mi NNW 5.8 mph - N/A   Clear
8:55 AM 53.6 °F 37.4 °F 54% 30.16 in 10.0 mi North 8.1 mph - N/A   Clear
9:15 AM 55.4 °F 37.4 °F 51% 30.17 in 10.0 mi North 8.1 mph - N/A   Clear
9:35 AM 55.4 °F 37.4 °F 51% 30.17 in 10.0 mi North 12.7 mph 17.3 mph N/A   Clear
9:55 AM 55.4 °F 37.4 °F 51% 30.17 in 10.0 mi North 6.9 mph - N/A   Clear
10:15 AM 59.0 °F 37.4 °F 45% 30.18 in 10.0 mi North 6.9 mph - N/A   Clear
10:35 AM 59.0 °F 35.6 °F 42% 30.18 in 10.0 mi North 10.4 mph 19.6 mph N/A   Clear
10:55 AM 59.0 °F 37.4 °F 45% 30.18 in 10.0 mi North 13.8 mph 19.6 mph N/A   Clear
11:15 AM 59.0 °F 35.6 °F 42% 30.19 in 10.0 mi North 11.5 mph 19.6 mph N/A   Clear
11:35 AM 60.8 °F 35.6 °F 39% 30.18 in 10.0 mi North 11.5 mph 19.6 mph N/A   Clear
11:55 AM 60.8 °F 37.4 °F 42% 30.18 in 10.0 mi NNE 15.0 mph 18.4 mph N/A   Clear
12:15 PM 60.8 °F 35.6 °F 39% 30.18 in 10.0 mi NNW 8.1 mph 18.4 mph N/A   Clear
12:35 PM 60.8 °F 35.6 °F 39% 30.17 in 10.0 mi NNE 10.4 mph 17.3 mph N/A   Clear
12:55 PM 62.6 °F 35.6 °F 37% 30.16 in 10.0 mi North 8.1 mph - N/A   Clear
1:15 PM 62.6 °F 35.6 °F 37% 30.16 in 10.0 mi North 8.1 mph - N/A   Clear
1:35 PM 62.6 °F 35.6 °F 37% 30.17 in 10.0 mi North 8.1 mph - N/A   Scattered Clouds
1:55 PM 62.6 °F 33.8 °F 34% 30.17 in 10.0 mi North 6.9 mph - N/A   Clear
2:15 PM 62.6 °F 35.6 °F 37% 30.17 in 10.0 mi North 10.4 mph - N/A   Scattered Clouds
2:35 PM 62.6 °F 33.8 °F 34% 30.17 in 10.0 mi NNE 11.5 mph 19.6 mph N/A   Scattered Clouds
2:55 PM 62.6 °F 33.8 °F 34% 30.18 in 10.0 mi NNE 5.8 mph - N/A   Scattered Clouds
3:15 PM 62.6 °F 35.6 °F 37% 30.18 in 10.0 mi North 12.7 mph - N/A   Scattered Clouds
3:35 PM 62.6 °F 33.8 °F 34% 30.19 in 10.0 mi North 6.9 mph - N/A   Clear
3:55 PM 60.8 °F 33.8 °F 36% 30.20 in 10.0 mi North 5.8 mph - N/A   Clear
4:15 PM 60.8 °F 33.8 °F 36% 30.20 in 10.0 mi NNW 5.8 mph - N/A   Clear
4:35 PM 60.8 °F 35.6 °F 39% 30.21 in 10.0 mi North 4.6 mph - N/A   Scattered Clouds
4:55 PM 59.0 °F 37.4 °F 45% 30.22 in 10.0 mi NNE 3.5 mph - N/A   Scattered Clouds
5:15 PM 55.4 °F 41.0 °F 58% 30.23 in 10.0 mi Calm Calm - N/A   Scattered Clouds
5:35 PM 53.6 °F 41.0 °F 62% 30.23 in 10.0 mi Calm Calm - N/A   Clear
5:55 PM 50.0 °F 42.8 °F 76% 30.24 in 10.0 mi Calm Calm - N/A   Clear
6:15 PM 46.4 °F 42.8 °F 87% 30.25 in 10.0 mi Calm Calm - N/A   Clear
6:35 PM 46.4 °F 42.8 °F 87% 30.26 in 10.0 mi Calm Calm - N/A   Clear
6:55 PM 44.6 °F 42.8 °F 93% 30.27 in 10.0 mi Calm Calm - N/A   Clear
7:15 PM 44.6 °F 42.8 °F 93% 30.28 in 10.0 mi Calm Calm - N/A   Clear
7:35 PM 44.6 °F 42.8 °F 93% 30.29 in 10.0 mi Calm Calm - N/A   Clear
7:55 PM 42.8 °F 42.8 °F 100% 30.30 in 10.0 mi Calm Calm - N/A   Clear
8:15 PM 42.8 °F 42.8 °F 100% 30.31 in 10.0 mi Calm Calm - N/A   Clear
8:35 PM 42.8 °F 41.0 °F 93% 30.32 in 10.0 mi Calm Calm - N/A   Clear
8:55 PM 42.8 °F 41.0 °F 93% 30.33 in 10.0 mi Calm Calm - N/A   Clear
9:15 PM 41.0 °F 41.0 °F 100% 30.34 in 10.0 mi Calm Calm - N/A   Clear
9:35 PM 41.0 °F 41.0 °F 100% 30.34 in 10.0 mi Calm Calm - N/A   Clear
9:55 PM 41.0 °F 41.0 °F 100% 30.34 in 10.0 mi Calm Calm - N/A   Clear
10:15 PM 41.0 °F 41.0 °F 100% 30.35 in 10.0 mi Calm Calm - N/A   Clear
10:35 PM 41.0 °F 41.0 °F 100% 30.36 in 10.0 mi Calm Calm - N/A   Clear
10:55 PM 41.0 °F 39.2 °F 93% 30.36 in 10.0 mi Calm Calm - N/A   Clear